Time,TemperatureF,DewpointF,PressureIn,WindDirection,WindDirectionDegrees,WindSpeedMPH,WindSpeedGustMPH,Humidity,HourlyPrecipIn,Conditions,Clouds,dailyrainin,SoftwareType,DateUTC
2013-10-19 00:02:00,77.2,71.6,29.91,ESE,105,0.0,0.0,83,0.00,,,0.00,Wunderground v.1.15,2013-10-19 04:02:00,
2013-10-19 00:04:00,77.1,71.5,29.91,ENE,65,0.0,0.0,83,0.00,,,0.00,Wunderground v.1.15,2013-10-19 04:04:00,
2013-10-19 00:10:00,77.2,71.6,29.91,ENE,73,0.0,0.0,83,0.00,,,0.00,Wunderground v.1.15,2013-10-19 04:10:00,
2013-10-19 00:12:00,77.1,71.5,29.91,ENE,73,0.0,0.0,83,0.00,,,0.00,Wunderground v.1.15,2013-10-19 04:12:00,
2013-10-19 00:14:00,77.1,71.9,29.91,ENE,73,0.0,0.0,84,0.00,,,0.00,Wunderground v.1.15,2013-10-19 04:14:00,
2013-10-19 00:20:00,77.1,71.5,29.90,East,92,0.0,0.0,83,0.00,,,0.00,Wunderground v.1.15,2013-10-19 04:20:00,
2013-10-19 00:24:00,77.1,71.5,29.90,East,91,0.0,0.0,83,0.00,,,0.00,Wunderground v.1.15,2013-10-19 04:24:00,
2013-10-19 00:30:00,77.1,71.5,29.90,ENE,77,0.0,0.0,83,0.00,,,0.00,Wunderground v.1.15,2013-10-19 04:30:00,
2013-10-19 00:36:00,77.0,71.4,29.90,ENE,69,0.0,0.0,83,0.00,,,0.00,Wunderground v.1.15,2013-10-19 04:36:00,
2013-10-19 00:42:00,76.9,71.3,29.90,East,98,0.0,0.0,83,0.00,,,0.00,Wunderground v.1.15,2013-10-19 04:42:00,
2013-10-19 00:48:00,76.9,71.7,29.89,ESE,122,0.0,0.0,84,0.00,,,0.00,Wunderground v.1.15,2013-10-19 04:48:00,
2013-10-19 00:54:00,76.9,71.7,29.89,ESE,105,0.0,1.0,84,0.00,,,0.00,Wunderground v.1.15,2013-10-19 04:54:00,
2013-10-19 01:00:00,76.8,71.6,29.89,East,101,0.0,0.0,84,0.00,,,0.00,Wunderground v.1.15,2013-10-19 05:00:00,
2013-10-19 01:06:00,76.7,71.5,29.89,East,95,0.0,1.0,84,0.00,,,0.00,Wunderground v.1.15,2013-10-19 05:06:00,
2013-10-19 01:12:00,76.8,71.2,29.89,ESE,115,0.0,0.0,83,0.00,,,0.00,Wunderground v.1.15,2013-10-19 05:12:00,
2013-10-19 01:18:00,76.8,71.6,29.88,ESE,117,0.0,0.0,84,0.00,,,0.00,Wunderground v.1.15,2013-10-19 05:18:00,
2013-10-19 01:24:00,76.9,71.3,29.88,ESE,108,0.0,1.0,83,0.00,,,0.00,Wunderground v.1.15,2013-10-19 05:24:00,
2013-10-19 01:30:00,76.8,71.2,29.88,ESE,108,0.0,0.0,83,0.00,,,0.00,Wunderground v.1.15,2013-10-19 05:30:00,
2013-10-19 01:36:00,76.8,71.2,29.88,ESE,115,0.0,1.0,83,0.00,,,0.00,Wunderground v.1.15,2013-10-19 05:36:00,
2013-10-19 01:42:00,76.9,71.3,29.88,ESE,115,0.0,0.0,83,0.00,,,0.00,Wunderground v.1.15,2013-10-19 05:42:00,
2013-10-19 01:48:00,76.7,71.5,29.88,ESE,115,0.0,0.0,84,0.00,,,0.00,Wunderground v.1.15,2013-10-19 05:48:00,
2013-10-19 01:54:00,76.3,71.1,29.88,ESE,115,0.0,0.0,84,0.00,,,0.00,Wunderground v.1.15,2013-10-19 05:54:00,
2013-10-19 02:00:00,76.0,71.2,29.88,ESE,115,0.0,0.0,85,0.00,,,0.00,Wunderground v.1.15,2013-10-19 06:00:00,
2013-10-19 02:06:00,75.7,71.2,29.88,ESE,115,0.0,0.0,86,0.00,,,0.00,Wunderground v.1.15,2013-10-19 06:06:00,
2013-10-19 02:12:00,75.5,71.0,29.88,ESE,115,0.0,0.0,86,0.00,,,0.00,Wunderground v.1.15,2013-10-19 06:12:00,
2013-10-19 02:18:00,75.0,70.9,29.88,ESE,115,0.0,0.0,87,0.00,,,0.00,Wunderground v.1.15,2013-10-19 06:18:00,
2013-10-19 02:24:00,74.9,71.1,29.87,ESE,115,0.0,0.0,88,0.00,,,0.00,Wunderground v.1.15,2013-10-19 06:24:00,
2013-10-19 02:30:00,74.6,70.5,29.87,ESE,115,0.0,0.0,87,0.00,,,0.00,Wunderground v.1.15,2013-10-19 06:30:00,
2013-10-19 02:37:00,74.6,71.5,29.87,ESE,115,0.0,0.0,90,0.00,,,0.00,Wunderground v.1.15,2013-10-19 06:37:00,
2013-10-19 02:42:00,74.5,71.0,29.87,ESE,115,0.0,0.0,89,0.00,,,0.00,Wunderground v.1.15,2013-10-19 06:42:00,
2013-10-19 02:48:00,74.2,70.7,29.87,ESE,115,0.0,0.0,89,0.00,,,0.00,Wunderground v.1.15,2013-10-19 06:48:00,
2013-10-19 02:54:00,73.8,70.7,29.86,ESE,115,0.0,0.0,90,0.00,,,0.00,Wunderground v.1.15,2013-10-19 06:54:00,
2013-10-19 03:00:00,73.7,70.9,29.87,ESE,115,0.0,0.0,91,0.00,,,0.00,Wunderground v.1.15,2013-10-19 07:00:00,
2013-10-19 03:06:00,73.6,70.8,29.86,ESE,115,0.0,0.0,91,0.00,,,0.00,Wunderground v.1.15,2013-10-19 07:06:00,
2013-10-19 03:12:00,73.5,70.7,29.86,ESE,115,0.0,0.0,91,0.00,,,0.00,Wunderground v.1.15,2013-10-19 07:12:00,
2013-10-19 03:18:00,73.4,70.6,29.86,ESE,115,0.0,0.0,91,0.00,,,0.00,Wunderground v.1.15,2013-10-19 07:18:00,
2013-10-19 03:24:00,73.3,70.8,29.86,ESE,115,0.0,0.0,92,0.00,,,0.00,Wunderground v.1.15,2013-10-19 07:24:00,
2013-10-19 03:30:00,73.3,71.2,29.86,ESE,115,0.0,0.0,93,0.00,,,0.00,Wunderground v.1.15,2013-10-19 07:30:00,
2013-10-19 03:36:00,73.5,71.4,29.86,ESE,115,0.0,0.0,93,0.00,,,0.00,Wunderground v.1.15,2013-10-19 07:36:00,
2013-10-19 03:42:00,73.4,70.9,29.85,ESE,115,0.0,0.0,92,0.00,,,0.00,Wunderground v.1.15,2013-10-19 07:42:00,
2013-10-19 03:48:00,73.4,71.3,29.85,ESE,115,0.0,0.0,93,0.00,,,0.00,Wunderground v.1.15,2013-10-19 07:48:00,
2013-10-19 03:54:00,73.2,71.1,29.85,ESE,115,0.0,0.0,93,0.00,,,0.00,Wunderground v.1.15,2013-10-19 07:54:00,
2013-10-19 04:00:00,73.1,71.0,29.85,ESE,115,0.0,0.0,93,0.00,,,0.00,Wunderground v.1.15,2013-10-19 08:00:00,
2013-10-19 04:06:00,72.9,70.8,29.85,ESE,115,0.0,0.0,93,0.00,,,0.00,Wunderground v.1.15,2013-10-19 08:06:00,
2013-10-19 04:12:00,72.6,70.8,29.85,ESE,115,0.0,0.0,94,0.00,,,0.00,Wunderground v.1.15,2013-10-19 08:12:00,
2013-10-19 04:18:00,72.5,70.7,29.85,ESE,115,0.0,0.0,94,0.00,,,0.00,Wunderground v.1.15,2013-10-19 08:18:00,
2013-10-19 04:24:00,72.6,70.8,29.85,ESE,115,0.0,0.0,94,0.00,,,0.00,Wunderground v.1.15,2013-10-19 08:24:00,
2013-10-19 04:30:00,72.7,70.9,29.85,ESE,115,0.0,0.0,94,0.00,,,0.00,Wunderground v.1.15,2013-10-19 08:30:00,
2013-10-19 04:36:00,72.6,70.8,29.85,ESE,115,0.0,0.0,94,0.00,,,0.00,Wunderground v.1.15,2013-10-19 08:36:00,
2013-10-19 04:42:00,72.8,71.6,29.85,ESE,115,0.0,0.0,96,0.00,,,0.00,Wunderground v.1.15,2013-10-19 08:42:00,
2013-10-19 04:48:00,72.8,71.3,29.86,ESE,115,0.0,0.0,95,0.00,,,0.00,Wunderground v.1.15,2013-10-19 08:48:00,
2013-10-19 04:54:00,73.1,71.3,29.86,ESE,115,0.0,0.0,94,0.00,,,0.00,Wunderground v.1.15,2013-10-19 08:54:00,
2013-10-19 05:00:00,73.0,71.2,29.86,ESE,115,0.0,0.0,94,0.00,,,0.00,Wunderground v.1.15,2013-10-19 09:00:00,
2013-10-19 05:06:00,73.1,71.3,29.86,ESE,115,0.0,0.0,94,0.00,,,0.00,Wunderground v.1.15,2013-10-19 09:06:00,
2013-10-19 05:12:00,73.0,71.2,29.86,ESE,115,0.0,0.0,94,0.00,,,0.00,Wunderground v.1.15,2013-10-19 09:12:00,
2013-10-19 05:18:00,73.0,71.5,29.86,ESE,115,0.0,0.0,95,0.00,,,0.00,Wunderground v.1.15,2013-10-19 09:18:00,
2013-10-19 05:24:00,72.7,71.2,29.86,ESE,115,0.0,0.0,95,0.00,,,0.00,Wunderground v.1.15,2013-10-19 09:24:00,
2013-10-19 05:30:00,72.7,71.2,29.86,ESE,115,0.0,0.0,95,0.00,,,0.00,Wunderground v.1.15,2013-10-19 09:30:00,
2013-10-19 05:36:00,72.6,71.1,29.86,ESE,115,0.0,0.0,95,0.00,,,0.00,Wunderground v.1.15,2013-10-19 09:36:00,
2013-10-19 05:42:00,72.4,70.9,29.86,ESE,115,0.0,0.0,95,0.00,,,0.00,Wunderground v.1.15,2013-10-19 09:42:00,
2013-10-19 05:48:00,72.3,70.8,29.86,ESE,115,0.0,0.0,95,0.00,,,0.00,Wunderground v.1.15,2013-10-19 09:48:00,
2013-10-19 05:54:00,72.1,70.6,29.86,ESE,115,0.0,0.0,95,0.00,,,0.00,Wunderground v.1.15,2013-10-19 09:54:00,
2013-10-19 06:00:00,72.1,70.9,29.86,ESE,115,0.0,0.0,96,0.00,,,0.00,Wunderground v.1.15,2013-10-19 10:00:00,
2013-10-19 06:06:00,72.1,70.9,29.86,ESE,115,0.0,0.0,96,0.00,,,0.00,Wunderground v.1.15,2013-10-19 10:06:00,
2013-10-19 06:12:00,72.3,71.1,29.86,ESE,115,0.0,0.0,96,0.00,,,0.00,Wunderground v.1.15,2013-10-19 10:12:00,
2013-10-19 06:18:00,72.4,71.2,29.86,ESE,115,0.0,0.0,96,0.00,,,0.00,Wunderground v.1.15,2013-10-19 10:18:00,
2013-10-19 06:24:00,72.7,71.5,29.87,ESE,115,0.0,0.0,96,0.00,,,0.00,Wunderground v.1.15,2013-10-19 10:24:00,
2013-10-19 06:30:00,73.2,71.7,29.87,ESE,115,0.0,0.0,95,0.00,,,0.00,Wunderground v.1.15,2013-10-19 10:30:00,
2013-10-19 06:36:00,73.4,71.6,29.87,ESE,115,0.0,0.0,94,0.00,,,0.00,Wunderground v.1.15,2013-10-19 10:36:00,
2013-10-19 06:42:00,73.5,71.7,29.87,ESE,115,0.0,0.0,94,0.00,,,0.00,Wunderground v.1.15,2013-10-19 10:42:00,
2013-10-19 06:48:00,73.6,71.8,29.88,ESE,115,0.0,0.0,94,0.00,,,0.00,Wunderground v.1.15,2013-10-19 10:48:00,
2013-10-19 06:54:00,73.7,71.5,29.88,ESE,115,0.0,0.0,93,0.00,,,0.00,Wunderground v.1.15,2013-10-19 10:54:00,
2013-10-19 07:00:00,73.7,71.5,29.88,ESE,115,0.0,0.0,93,0.00,,,0.00,Wunderground v.1.15,2013-10-19 11:00:00,
2013-10-19 07:06:00,73.5,71.4,29.88,ESE,115,0.0,0.0,93,0.00,,,0.00,Wunderground v.1.15,2013-10-19 11:06:00,
2013-10-19 07:12:00,73.4,71.3,29.88,ESE,115,0.0,0.0,93,0.00,,,0.00,Wunderground v.1.15,2013-10-19 11:12:00,
2013-10-19 07:18:00,73.2,71.4,29.88,ESE,115,0.0,0.0,94,0.00,,,0.00,Wunderground v.1.15,2013-10-19 11:18:00,
2013-10-19 07:24:00,73.3,71.5,29.88,ESE,115,0.0,0.0,94,0.00,,,0.00,Wunderground v.1.15,2013-10-19 11:24:00,
2013-10-19 07:30:00,73.4,71.6,29.88,ESE,115,0.0,0.0,94,0.00,,,0.00,Wunderground v.1.15,2013-10-19 11:30:00,
2013-10-19 07:36:00,73.7,71.9,29.88,ESE,115,0.0,0.0,94,0.00,,,0.00,Wunderground v.1.15,2013-10-19 11:36:00,
2013-10-19 07:42:00,74.4,72.2,29.88,ESE,115,0.0,0.0,93,0.00,,,0.00,Wunderground v.1.15,2013-10-19 11:42:00,
2013-10-19 07:48:00,75.2,72.7,29.88,ESE,115,0.0,1.0,92,0.00,,,0.00,Wunderground v.1.15,2013-10-19 11:48:00,
2013-10-19 07:54:00,76.0,72.9,29.88,ESE,105,1.0,2.0,90,0.00,,,0.00,Wunderground v.1.15,2013-10-19 11:54:00,
2013-10-19 08:00:00,76.8,73.3,29.88,East,100,1.0,1.0,89,0.00,,,0.00,Wunderground v.1.15,2013-10-19 12:00:00,
2013-10-19 08:07:00,77.6,73.4,29.89,ESE,115,0.0,1.0,87,0.00,,,0.00,Wunderground v.1.15,2013-10-19 12:07:00,
2013-10-19 08:12:00,78.1,73.6,29.89,ESE,117,1.0,1.0,86,0.00,,,0.00,Wunderground v.1.15,2013-10-19 12:12:00,
2013-10-19 08:18:00,78.8,73.6,29.89,ESE,113,1.0,1.0,84,0.00,,,0.00,Wunderground v.1.15,2013-10-19 12:18:00,
2013-10-19 08:24:00,79.4,73.8,29.89,ESE,120,1.0,2.0,83,0.00,,,0.00,Wunderground v.1.15,2013-10-19 12:24:00,
2013-10-19 08:30:00,80.0,74.0,29.89,SE,133,1.0,1.0,82,0.00,,,0.00,Wunderground v.1.15,2013-10-19 12:30:00,
2013-10-19 08:36:00,80.6,73.9,29.89,SE,124,2.0,2.0,80,0.00,,,0.00,Wunderground v.1.15,2013-10-19 12:36:00,
2013-10-19 08:42:00,80.9,74.1,29.89,SE,124,2.0,2.0,80,0.00,,,0.00,Wunderground v.1.15,2013-10-19 12:42:00,
2013-10-19 08:48:00,81.3,74.2,29.89,East,86,2.0,2.0,79,0.00,,,0.00,Wunderground v.1.15,2013-10-19 12:48:00,
2013-10-19 08:54:00,81.9,74.7,29.89,ESE,122,2.0,2.0,79,0.00,,,0.00,Wunderground v.1.15,2013-10-19 12:54:00,
2013-10-19 09:00:00,82.1,74.2,29.90,SE,142,2.0,3.0,77,0.00,,,0.00,Wunderground v.1.15,2013-10-19 13:00:00,
2013-10-19 09:06:00,82.1,74.2,29.90,SE,133,3.0,4.0,77,0.00,,,0.00,Wunderground v.1.15,2013-10-19 13:06:00,
2013-10-19 09:12:00,82.4,73.7,29.90,SE,127,3.0,6.0,75,0.00,,,0.00,Wunderground v.1.15,2013-10-19 13:12:00,
2013-10-19 09:18:00,82.5,74.2,29.90,ESE,123,4.0,6.0,76,0.00,,,0.00,Wunderground v.1.15,2013-10-19 13:18:00,
2013-10-19 09:24:00,82.9,74.2,29.90,ESE,109,4.0,5.0,75,0.00,,,0.00,Wunderground v.1.15,2013-10-19 13:24:00,
2013-10-19 09:30:00,83.0,73.9,29.90,SE,134,4.0,4.0,74,0.00,,,0.00,Wunderground v.1.15,2013-10-19 13:30:00,
2013-10-19 09:36:00,83.0,73.9,29.90,ESE,109,5.0,6.0,74,0.00,,,0.00,Wunderground v.1.15,2013-10-19 13:36:00,
2013-10-19 09:42:00,83.5,73.9,29.91,ESE,102,4.0,5.0,73,0.00,,,0.00,Wunderground v.1.15,2013-10-19 13:42:00,
2013-10-19 09:48:00,83.6,74.0,29.91,SE,145,4.0,6.0,73,0.00,,,0.00,Wunderground v.1.15,2013-10-19 13:48:00,
2013-10-19 09:54:00,84.1,74.1,29.91,ESE,110,4.0,6.0,72,0.00,,,0.00,Wunderground v.1.15,2013-10-19 13:54:00,
2013-10-19 10:00:00,84.3,73.9,29.91,SE,129,4.0,6.0,71,0.00,,,0.00,Wunderground v.1.15,2013-10-19 14:00:00,
2013-10-19 10:06:00,84.1,73.7,29.91,SE,126,5.0,10.0,71,0.00,,,0.00,Wunderground v.1.15,2013-10-19 14:06:00,
2013-10-19 10:12:00,84.5,74.1,29.91,East,91,5.0,5.0,71,0.00,,,0.00,Wunderground v.1.15,2013-10-19 14:12:00,
2013-10-19 10:18:00,84.8,73.1,29.91,ESE,120,4.0,5.0,68,0.00,,,0.00,Wunderground v.1.15,2013-10-19 14:18:00,
2013-10-19 10:24:00,84.7,72.5,29.91,ESE,123,5.0,7.0,67,0.00,,,0.00,Wunderground v.1.15,2013-10-19 14:24:00,
2013-10-19 10:30:00,85.1,73.3,29.91,East,97,4.0,4.0,68,0.00,,,0.00,Wunderground v.1.15,2013-10-19 14:30:00,
2013-10-19 10:36:00,85.2,73.0,29.91,SSE,163,4.0,6.0,67,0.00,,,0.00,Wunderground v.1.15,2013-10-19 14:36:00,
2013-10-19 10:42:00,85.2,73.0,29.91,SE,125,4.0,5.0,67,0.00,,,0.00,Wunderground v.1.15,2013-10-19 14:42:00,
2013-10-19 10:48:00,85.4,72.7,29.90,East,94,4.0,9.0,66,0.00,,,0.00,Wunderground v.1.15,2013-10-19 14:48:00,
2013-10-19 10:54:00,85.7,73.0,29.90,ESE,121,4.0,5.0,66,0.00,,,0.00,Wunderground v.1.15,2013-10-19 14:54:00,
2013-10-19 11:00:00,85.6,73.4,29.90,SSE,149,4.0,4.0,67,0.00,,,0.00,Wunderground v.1.15,2013-10-19 15:00:00,
2013-10-19 11:06:00,86.0,73.3,29.90,ESE,115,4.0,7.0,66,0.00,,,0.00,Wunderground v.1.15,2013-10-19 15:06:00,
2013-10-19 11:12:00,86.3,73.6,29.90,SSE,154,5.0,5.0,66,0.00,,,0.00,Wunderground v.1.15,2013-10-19 15:12:00,
2013-10-19 11:18:00,86.9,73.3,29.90,SSE,148,5.0,5.0,64,0.00,,,0.00,Wunderground v.1.15,2013-10-19 15:18:00,
2013-10-19 11:24:00,87.0,73.3,29.90,South,184,3.0,5.0,64,0.00,,,0.00,Wunderground v.1.15,2013-10-19 15:24:00,
2013-10-19 11:30:00,87.4,73.3,29.90,SSW,212,4.0,6.0,63,0.00,,,0.00,Wunderground v.1.15,2013-10-19 15:30:00,
2013-10-19 11:36:00,87.0,73.8,29.90,SSE,164,4.0,6.0,65,0.00,,,0.00,Wunderground v.1.15,2013-10-19 15:36:00,
2013-10-19 11:42:00,87.3,73.2,29.90,SSW,207,4.0,4.0,63,0.00,,,0.00,Wunderground v.1.15,2013-10-19 15:42:00,
2013-10-19 11:48:00,87.6,73.4,29.90,ESE,112,4.0,4.0,63,0.00,,,0.00,Wunderground v.1.15,2013-10-19 15:48:00,
2013-10-19 11:54:00,87.3,73.6,29.89,ESE,120,3.0,4.0,64,0.00,,,0.00,Wunderground v.1.15,2013-10-19 15:54:00,
2013-10-19 12:00:00,87.8,73.2,29.89,South,172,3.0,4.0,62,0.00,,,0.00,Wunderground v.1.15,2013-10-19 16:00:00,
2013-10-19 12:08:00,87.5,72.9,29.89,East,97,4.0,7.0,62,0.00,,,0.00,Wunderground v.1.15,2013-10-19 16:08:00,
2013-10-19 12:14:00,88.1,73.4,29.89,ESE,122,5.0,10.0,62,0.00,,,0.00,Wunderground v.1.15,2013-10-19 16:14:00,
2013-10-19 12:20:00,88.6,73.9,29.89,SE,133,4.0,4.0,62,0.00,,,0.00,Wunderground v.1.15,2013-10-19 16:20:00,
2013-10-19 12:26:00,88.9,73.7,29.89,SE,128,3.0,4.0,61,0.00,,,0.00,Wunderground v.1.15,2013-10-19 16:26:00,
2013-10-19 12:32:00,88.1,73.4,29.88,SSW,202,3.0,6.0,62,0.00,,,0.00,Wunderground v.1.15,2013-10-19 16:32:00,
2013-10-19 12:38:00,88.1,73.0,29.88,SE,137,4.0,8.0,61,0.00,,,0.00,Wunderground v.1.15,2013-10-19 16:38:00,
2013-10-19 12:44:00,87.5,72.9,29.88,ESE,117,4.0,7.0,62,0.00,,,0.00,Wunderground v.1.15,2013-10-19 16:44:00,
2013-10-19 12:50:00,88.1,73.4,29.87,East,86,4.0,4.0,62,0.00,,,0.00,Wunderground v.1.15,2013-10-19 16:50:00,
2013-10-19 12:56:00,87.5,72.9,29.87,South,173,5.0,7.0,62,0.00,,,0.00,Wunderground v.1.15,2013-10-19 16:56:00,
2013-10-19 13:02:00,88.4,73.2,29.87,SE,125,3.0,4.0,61,0.00,,,0.00,Wunderground v.1.15,2013-10-19 17:02:00,
2013-10-19 13:08:00,88.5,73.3,29.87,SSE,148,4.0,6.0,61,0.00,,,0.00,Wunderground v.1.15,2013-10-19 17:08:00,
2013-10-19 13:14:00,87.8,73.2,29.87,East,85,4.0,6.0,62,0.00,,,0.00,Wunderground v.1.15,2013-10-19 17:14:00,
2013-10-19 13:20:00,87.9,74.2,29.86,SE,134,4.0,4.0,64,0.00,,,0.00,Wunderground v.1.15,2013-10-19 17:20:00,
2013-10-19 13:26:00,88.0,73.8,29.86,South,179,4.0,6.0,63,0.00,,,0.00,Wunderground v.1.15,2013-10-19 17:26:00,
2013-10-19 13:32:00,88.6,74.4,29.86,ESE,118,4.0,4.0,63,0.00,,,0.00,Wunderground v.1.15,2013-10-19 17:32:00,
2013-10-19 13:38:00,87.8,73.6,29.86,ESE,120,5.0,5.0,63,0.00,,,0.00,Wunderground v.1.15,2013-10-19 17:38:00,
2013-10-19 13:44:00,87.5,73.8,29.86,SSE,160,5.0,7.0,64,0.00,,,0.00,Wunderground v.1.15,2013-10-19 17:44:00,
2013-10-19 13:50:00,87.6,73.9,29.85,SSE,155,5.0,5.0,64,0.00,,,0.00,Wunderground v.1.15,2013-10-19 17:50:00,
2013-10-19 13:56:00,87.7,74.5,29.85,SE,146,4.0,5.0,65,0.00,,,0.00,Wunderground v.1.15,2013-10-19 17:56:00,
2013-10-19 14:02:00,88.8,74.6,29.85,SE,139,4.0,6.0,63,0.00,,,0.00,Wunderground v.1.15,2013-10-19 18:02:00,
2013-10-19 14:08:00,88.4,73.7,29.84,SE,130,4.0,6.0,62,0.00,,,0.00,Wunderground v.1.15,2013-10-19 18:08:00,
2013-10-19 14:14:00,88.4,73.7,29.84,South,183,5.0,6.0,62,0.00,,,0.00,Wunderground v.1.15,2013-10-19 18:14:00,
2013-10-19 14:20:00,89.2,74.0,29.84,South,191,4.0,4.0,61,0.00,,,0.00,Wunderground v.1.15,2013-10-19 18:20:00,
2013-10-19 14:26:00,88.8,73.6,29.84,SSE,163,4.0,6.0,61,0.00,,,0.00,Wunderground v.1.15,2013-10-19 18:26:00,
2013-10-19 14:32:00,89.1,73.4,29.83,ESE,122,3.0,4.0,60,0.00,,,0.00,Wunderground v.1.15,2013-10-19 18:32:00,
2013-10-19 14:38:00,89.8,73.6,29.83,WSW,243,3.0,4.0,59,0.00,,,0.00,Wunderground v.1.15,2013-10-19 18:38:00,
2013-10-19 14:44:00,89.7,73.5,29.83,SE,138,4.0,4.0,59,0.00,,,0.00,Wunderground v.1.15,2013-10-19 18:44:00,
2013-10-19 14:50:00,88.9,73.2,29.83,South,184,4.0,4.0,60,0.00,,,0.00,Wunderground v.1.15,2013-10-19 18:50:00,
2013-10-19 14:56:00,88.8,73.6,29.83,SSE,164,4.0,6.0,61,0.00,,,0.00,Wunderground v.1.15,2013-10-19 18:56:00,
2013-10-19 15:02:00,89.8,73.6,29.83,WSW,244,4.0,4.0,59,0.00,,,0.00,Wunderground v.1.15,2013-10-19 19:02:00,
2013-10-19 15:08:00,90.4,73.6,29.83,SSE,153,3.0,5.0,58,0.00,,,0.00,Wunderground v.1.15,2013-10-19 19:08:00,
2013-10-19 15:14:00,89.6,72.9,29.82,ESE,123,3.0,7.0,58,0.00,,,0.00,Wunderground v.1.15,2013-10-19 19:14:00,
2013-10-19 15:20:00,89.2,73.0,29.82,SSE,150,4.0,5.0,59,0.00,,,0.00,Wunderground v.1.15,2013-10-19 19:20:00,
2013-10-19 15:28:00,89.6,72.9,29.82,SE,127,3.0,5.0,58,0.00,,,0.00,Wunderground v.1.15,2013-10-19 19:28:00,
2013-10-19 15:34:00,88.7,73.0,29.82,SE,130,3.0,5.0,60,0.00,,,0.00,Wunderground v.1.15,2013-10-19 19:34:00,
2013-10-19 15:40:00,88.6,72.9,29.82,East,91,4.0,4.0,60,0.00,,,0.00,Wunderground v.1.15,2013-10-19 19:40:00,
2013-10-19 15:46:00,88.8,72.6,29.82,ESE,123,4.0,10.0,59,0.00,,,0.00,Wunderground v.1.15,2013-10-19 19:46:00,
2013-10-19 15:52:00,88.7,74.0,29.82,ESE,103,5.0,7.0,62,0.00,,,0.00,Wunderground v.1.15,2013-10-19 19:52:00,
2013-10-19 15:58:00,88.3,73.6,29.82,SE,131,5.0,7.0,62,0.00,,,0.00,Wunderground v.1.15,2013-10-19 19:58:00,
2013-10-19 16:04:00,88.0,73.8,29.82,SE,126,4.0,5.0,63,0.00,,,0.00,Wunderground v.1.15,2013-10-19 20:04:00,
2013-10-19 16:10:00,87.8,73.6,29.82,ESE,105,4.0,6.0,63,0.00,,,0.00,Wunderground v.1.15,2013-10-19 20:10:00,
2013-10-19 16:16:00,87.6,73.4,29.82,ESE,122,5.0,6.0,63,0.00,,,0.00,Wunderground v.1.15,2013-10-19 20:16:00,
2013-10-19 16:22:00,87.1,73.4,29.82,SE,141,5.0,6.0,64,0.00,,,0.00,Wunderground v.1.15,2013-10-19 20:22:00,
2013-10-19 16:28:00,87.7,74.5,29.82,SSE,152,4.0,6.0,65,0.00,,,0.00,Wunderground v.1.15,2013-10-19 20:28:00,
2013-10-19 16:34:00,88.0,73.8,29.82,ESE,119,4.0,5.0,63,0.00,,,0.00,Wunderground v.1.15,2013-10-19 20:34:00,
2013-10-19 16:40:00,87.8,74.6,29.82,ENE,72,5.0,5.0,65,0.00,,,0.00,Wunderground v.1.15,2013-10-19 20:40:00,
2013-10-19 16:46:00,87.7,74.0,29.82,South,175,5.0,7.0,64,0.00,,,0.00,Wunderground v.1.15,2013-10-19 20:46:00,
2013-10-19 16:52:00,87.6,73.9,29.82,ESE,122,5.0,7.0,64,0.00,,,0.00,Wunderground v.1.15,2013-10-19 20:52:00,
2013-10-19 16:58:00,87.3,74.1,29.82,SSE,162,5.0,7.0,65,0.00,,,0.00,Wunderground v.1.15,2013-10-19 20:58:00,
2013-10-19 17:04:00,86.8,73.6,29.82,SSE,148,4.0,5.0,65,0.00,,,0.00,Wunderground v.1.15,2013-10-19 21:04:00,
2013-10-19 17:10:00,86.4,73.7,29.82,SE,131,4.0,4.0,66,0.00,,,0.00,Wunderground v.1.15,2013-10-19 21:10:00,
2013-10-19 17:16:00,86.4,74.1,29.82,East,91,4.0,5.0,67,0.00,,,0.00,Wunderground v.1.15,2013-10-19 21:16:00,
2013-10-19 17:22:00,86.3,74.0,29.82,East,88,4.0,6.0,67,0.00,,,0.00,Wunderground v.1.15,2013-10-19 21:22:00,
2013-10-19 17:28:00,86.1,73.9,29.82,SE,127,4.0,6.0,67,0.00,,,0.00,Wunderground v.1.15,2013-10-19 21:28:00,
2013-10-19 17:34:00,85.5,73.7,29.82,SSE,148,4.0,6.0,68,0.00,,,0.00,Wunderground v.1.15,2013-10-19 21:34:00,
2013-10-19 17:40:00,85.1,73.8,29.82,ESE,117,5.0,5.0,69,0.00,,,0.00,Wunderground v.1.15,2013-10-19 21:40:00,
2013-10-19 17:46:00,84.9,74.0,29.82,SE,131,4.0,6.0,70,0.00,,,0.00,Wunderground v.1.15,2013-10-19 21:46:00,
2013-10-19 17:52:00,84.5,73.6,29.82,ESE,108,5.0,5.0,70,0.00,,,0.00,Wunderground v.1.15,2013-10-19 21:52:00,
2013-10-19 17:58:00,84.3,73.9,29.82,SE,127,4.0,6.0,71,0.00,,,0.00,Wunderground v.1.15,2013-10-19 21:58:00,
2013-10-19 18:04:00,84.0,73.6,29.82,ESE,106,5.0,12.0,71,0.00,,,0.00,Wunderground v.1.15,2013-10-19 22:04:00,
2013-10-19 18:10:00,83.8,73.8,29.83,ESE,109,6.0,6.0,72,0.00,,,0.00,Wunderground v.1.15,2013-10-19 22:10:00,
2013-10-19 18:16:00,83.8,73.8,29.82,ESE,117,4.0,6.0,72,0.00,,,0.00,Wunderground v.1.15,2013-10-19 22:16:00,
2013-10-19 18:22:00,83.6,74.0,29.83,East,91,4.0,4.0,73,0.00,,,0.00,Wunderground v.1.15,2013-10-19 22:22:00,
2013-10-19 18:28:00,83.4,74.2,29.83,SSW,195,4.0,4.0,74,0.00,,,0.00,Wunderground v.1.15,2013-10-19 22:28:00,
2013-10-19 18:34:00,83.3,74.5,29.83,SE,143,4.0,9.0,75,0.00,,,0.00,Wunderground v.1.15,2013-10-19 22:34:00,
2013-10-19 18:40:00,83.2,74.4,29.83,SE,133,4.0,4.0,75,0.00,,,0.00,Wunderground v.1.15,2013-10-19 22:40:00,
2013-10-19 18:46:00,83.0,74.3,29.84,SSE,167,3.0,5.0,75,0.00,,,0.00,Wunderground v.1.15,2013-10-19 22:46:00,
2013-10-19 18:52:00,82.9,74.6,29.84,SSE,168,3.0,4.0,76,0.00,,,0.00,Wunderground v.1.15,2013-10-19 22:52:00,
2013-10-19 18:58:00,82.8,74.5,29.84,SSW,203,3.0,5.0,76,0.00,,,0.00,Wunderground v.1.15,2013-10-19 22:58:00,
2013-10-19 19:04:00,82.2,75.8,29.84,South,179,2.0,3.0,81,0.00,,,0.00,Wunderground v.1.15,2013-10-19 23:04:00,
2013-10-19 19:10:00,81.7,75.7,29.84,WSW,249,1.0,1.0,82,0.00,,,0.00,Wunderground v.1.15,2013-10-19 23:10:00,
2013-10-19 19:16:00,81.2,75.5,29.84,SSW,212,1.0,3.0,83,0.00,,,0.00,Wunderground v.1.15,2013-10-19 23:16:00,
2013-10-19 19:22:00,80.8,75.5,29.84,WSW,249,1.0,1.0,84,0.00,,,0.00,Wunderground v.1.15,2013-10-19 23:22:00,
2013-10-19 19:28:00,80.6,75.7,29.85,SSW,211,1.0,1.0,85,0.00,,,0.00,Wunderground v.1.15,2013-10-19 23:28:00,
2013-10-19 19:34:00,80.5,75.6,29.85,WSW,257,0.0,1.0,85,0.00,,,0.00,Wunderground v.1.15,2013-10-19 23:34:00,
2013-10-19 19:40:00,80.4,75.5,29.85,SSE,152,0.0,0.0,85,0.00,,,0.00,Wunderground v.1.15,2013-10-19 23:40:00,
2013-10-19 19:46:00,80.4,75.5,29.85,SSW,195,0.0,0.0,85,0.00,,,0.00,Wunderground v.1.15,2013-10-19 23:46:00,
2013-10-19 19:52:00,80.5,75.2,29.85,SE,144,0.0,0.0,84,0.00,,,0.00,Wunderground v.1.15,2013-10-19 23:52:00,
2013-10-19 19:58:00,80.6,75.3,29.85,SE,134,0.0,2.0,84,0.00,,,0.00,Wunderground v.1.15,2013-10-19 23:58:00,
2013-10-19 20:04:00,80.7,75.4,29.85,East,86,0.0,0.0,84,0.00,,,0.00,Wunderground v.1.15,2013-10-20 00:04:00,
2013-10-19 20:10:00,80.7,75.4,29.85,East,86,0.0,0.0,84,0.00,,,0.00,Wunderground v.1.15,2013-10-20 00:10:00,
2013-10-19 20:16:00,80.7,75.4,29.86,East,86,0.0,0.0,84,0.00,,,0.00,Wunderground v.1.15,2013-10-20 00:16:00,
2013-10-19 20:22:00,80.7,75.4,29.85,ESE,113,0.0,0.0,84,0.00,,,0.00,Wunderground v.1.15,2013-10-20 00:22:00,
2013-10-19 20:28:00,80.9,74.9,29.86,SE,141,0.0,0.0,82,0.00,,,0.00,Wunderground v.1.15,2013-10-20 00:28:00,
2013-10-19 20:34:00,81.0,75.0,29.86,SE,141,0.0,0.0,82,0.00,,,0.00,Wunderground v.1.15,2013-10-20 00:34:00,
2013-10-19 20:40:00,81.2,75.2,29.86,SE,139,0.0,0.0,82,0.00,,,0.00,Wunderground v.1.15,2013-10-20 00:40:00,
2013-10-19 20:46:00,81.4,75.0,29.86,East,98,1.0,1.0,81,0.00,,,0.00,Wunderground v.1.15,2013-10-20 00:46:00,
2013-10-19 20:52:00,81.6,74.8,29.86,ESE,123,1.0,4.0,80,0.00,,,0.00,Wunderground v.1.15,2013-10-20 00:52:00,
2013-10-19 20:58:00,81.7,74.9,29.86,East,89,2.0,4.0,80,0.00,,,0.00,Wunderground v.1.15,2013-10-20 00:58:00,
2013-10-19 21:04:00,81.8,75.0,29.86,East,90,1.0,2.0,80,0.00,,,0.00,Wunderground v.1.15,2013-10-20 01:04:00,
2013-10-19 21:10:00,81.8,74.6,29.86,SE,125,1.0,1.0,79,0.00,,,0.00,Wunderground v.1.15,2013-10-20 01:10:00,
2013-10-19 21:16:00,81.9,75.1,29.87,ESE,122,1.0,2.0,80,0.00,,,0.00,Wunderground v.1.15,2013-10-20 01:16:00,
2013-10-19 21:22:00,81.8,74.6,29.86,SE,129,1.0,3.0,79,0.00,,,0.00,Wunderground v.1.15,2013-10-20 01:22:00,
2013-10-19 21:28:00,81.9,75.1,29.86,SSE,161,2.0,3.0,80,0.00,,,0.00,Wunderground v.1.15,2013-10-20 01:28:00,
2013-10-19 21:34:00,81.8,75.0,29.87,SE,127,1.0,1.0,80,0.00,,,0.00,Wunderground v.1.15,2013-10-20 01:34:00,
2013-10-19 21:40:00,81.8,75.0,29.87,SSE,151,0.0,2.0,80,0.00,,,0.00,Wunderground v.1.15,2013-10-20 01:40:00,
2013-10-19 21:46:00,81.8,75.0,29.87,ESE,115,1.0,3.0,80,0.00,,,0.00,Wunderground v.1.15,2013-10-20 01:46:00,
2013-10-19 21:52:00,81.7,74.9,29.87,ESE,114,1.0,1.0,80,0.00,,,0.00,Wunderground v.1.15,2013-10-20 01:52:00,
2013-10-19 21:58:00,81.7,74.9,29.87,East,91,1.0,3.0,80,0.00,,,0.00,Wunderground v.1.15,2013-10-20 01:58:00,
2013-10-19 22:04:00,81.7,74.9,29.87,ESE,105,1.0,3.0,80,0.00,,,0.00,Wunderground v.1.15,2013-10-20 02:04:00,
2013-10-19 22:10:00,81.6,74.8,29.88,SE,127,1.0,1.0,80,0.00,,,0.00,Wunderground v.1.15,2013-10-20 02:10:00,
2013-10-19 22:16:00,81.7,74.9,29.88,ESE,119,1.0,1.0,80,0.00,,,0.00,Wunderground v.1.15,2013-10-20 02:16:00,
2013-10-19 22:22:00,81.7,74.9,29.88,ESE,121,1.0,1.0,80,0.00,,,0.00,Wunderground v.1.15,2013-10-20 02:22:00,
2013-10-19 22:28:00,81.7,74.9,29.88,ESE,122,1.0,1.0,80,0.00,,,0.00,Wunderground v.1.15,2013-10-20 02:28:00,
2013-10-19 22:34:00,81.7,74.9,29.88,SE,143,1.0,3.0,80,0.00,,,0.00,Wunderground v.1.15,2013-10-20 02:34:00,
2013-10-19 22:40:00,81.6,74.8,29.88,ESE,105,1.0,1.0,80,0.00,,,0.00,Wunderground v.1.15,2013-10-20 02:40:00,
2013-10-19 22:46:00,81.5,74.7,29.89,ESE,109,1.0,1.0,80,0.00,,,0.00,Wunderground v.1.15,2013-10-20 02:46:00,
2013-10-19 22:52:00,81.4,75.0,29.89,SSE,150,1.0,1.0,81,0.00,,,0.00,Wunderground v.1.15,2013-10-20 02:52:00,
2013-10-19 22:58:00,81.3,74.9,29.89,SE,131,0.0,1.0,81,0.00,,,0.00,Wunderground v.1.15,2013-10-20 02:58:00,
2013-10-19 23:04:00,81.2,74.8,29.88,SE,131,0.0,0.0,81,0.00,,,0.00,Wunderground v.1.15,2013-10-20 03:04:00,
2013-10-19 23:10:00,81.1,75.1,29.88,ESE,112,0.0,0.0,82,0.00,,,0.00,Wunderground v.1.15,2013-10-20 03:10:00,
2013-10-19 23:16:00,81.0,75.0,29.88,SE,124,0.0,0.0,82,0.00,,,0.00,Wunderground v.1.15,2013-10-20 03:16:00,
2013-10-19 23:22:00,81.0,75.0,29.88,ESE,120,0.0,0.0,82,0.00,,,0.00,Wunderground v.1.15,2013-10-20 03:22:00,
2013-10-19 23:28:00,80.8,74.8,29.88,SE,136,0.0,1.0,82,0.00,,,0.00,Wunderground v.1.15,2013-10-20 03:28:00,
2013-10-19 23:34:00,80.8,74.8,29.88,SE,134,0.0,0.0,82,0.00,,,0.00,Wunderground v.1.15,2013-10-20 03:34:00,
2013-10-19 23:40:00,80.8,74.8,29.88,SE,124,0.0,0.0,82,0.00,,,0.00,Wunderground v.1.15,2013-10-20 03:40:00,
2013-10-19 23:46:00,80.7,75.1,29.88,SSE,149,0.0,0.0,83,0.00,,,0.00,Wunderground v.1.15,2013-10-20 03:46:00,
2013-10-19 23:52:00,80.6,75.0,29.88,SE,126,0.0,1.0,83,0.00,,,0.00,Wunderground v.1.15,2013-10-20 03:52:00,
2013-10-19 23:58:00,80.5,74.9,29.88,SSE,148,0.0,1.0,83,0.00,,,0.00,Wunderground v.1.15,2013-10-20 03:58:00,